Time,TemperatureF,DewpointF,PressureIn,WindDirection,WindDirectionDegrees,WindSpeedMPH,WindSpeedGustMPH,Humidity,HourlyPrecipIn,Conditions,Clouds,dailyrainin,SoftwareType,DateUTC
2013-10-29 00:05:00,40.0,36.0,29.20,WSW,246,0.0,1.0,86,0.01,,,0.05,,2013-10-29 08:05:00,
2013-10-29 00:13:00,40.0,36.0,29.20,WSW,246,0.0,1.0,86,0.01,,,0.05,,2013-10-29 08:13:00,
2013-10-29 00:24:00,39.0,36.0,29.21,SE,127,0.0,3.0,88,0.01,,,0.05,,2013-10-29 08:24:00,
2013-10-29 00:31:00,39.0,36.0,29.21,SE,127,0.0,3.0,88,0.01,,,0.05,,2013-10-29 08:31:00,
2013-10-29 00:42:00,39.0,36.0,29.21,SE,127,0.0,3.0,88,0.01,,,0.05,,2013-10-29 08:42:00,
2013-10-29 00:52:00,38.0,35.0,29.22,SE,126,0.0,0.0,89,0.00,,,0.03,,2013-10-29 08:52:00,
2013-10-29 01:02:00,38.0,35.0,29.22,SE,126,0.0,0.0,89,0.00,,,0.03,,2013-10-29 09:02:00,
2013-10-29 01:11:00,38.0,35.0,29.22,SE,126,0.0,0.0,89,0.00,,,0.03,,2013-10-29 09:11:00,
2013-10-29 01:21:00,38.0,35.0,29.22,SW,219,0.0,2.0,90,0.01,,,0.04,,2013-10-29 09:21:00,
2013-10-29 01:33:00,38.0,35.0,29.22,SW,219,0.0,2.0,90,0.01,,,0.04,,2013-10-29 09:33:00,
2013-10-29 01:42:00,38.0,35.0,29.22,SW,219,0.0,2.0,90,0.01,,,0.04,,2013-10-29 09:42:00,
2013-10-29 01:53:00,39.0,36.0,29.22,West,274,1.0,3.0,90,0.05,,,0.07,,2013-10-29 09:53:00,
2013-10-29 02:03:00,39.0,36.0,29.22,West,274,1.0,3.0,90,0.05,,,0.07,,2013-10-29 10:03:00,
2013-10-29 02:13:00,39.0,36.0,29.22,West,274,1.0,3.0,90,0.05,,,0.07,,2013-10-29 10:13:00,
2013-10-29 02:23:00,39.0,36.0,29.23,West,274,0.0,1.0,90,0.05,,,0.08,,2013-10-29 10:23:00,
2013-10-29 02:33:00,39.0,36.0,29.23,West,274,0.0,1.0,90,0.05,,,0.08,,2013-10-29 10:33:00,
2013-10-29 02:42:00,39.0,36.0,29.23,West,274,0.0,1.0,90,0.05,,,0.08,,2013-10-29 10:42:00,
2013-10-29 02:53:00,39.0,36.0,29.25,West,281,0.0,2.0,90,0.02,,,0.09,,2013-10-29 10:53:00,
2013-10-29 03:03:00,39.0,36.0,29.25,West,281,0.0,2.0,90,0.02,,,0.09,,2013-10-29 11:03:00,
2013-10-29 03:12:00,39.0,36.0,29.25,West,281,0.0,2.0,90,0.02,,,0.09,,2013-10-29 11:12:00,
2013-10-29 03:22:00,38.0,36.0,29.26,West,281,0.0,1.0,91,0.02,,,0.10,,2013-10-29 11:22:00,
2013-10-29 03:33:00,38.0,36.0,29.26,West,281,0.0,1.0,91,0.02,,,0.10,,2013-10-29 11:33:00,
2013-10-29 03:42:00,38.0,36.0,29.26,West,281,0.0,1.0,91,0.02,,,0.10,,2013-10-29 11:42:00,
2013-10-29 03:52:00,39.0,37.0,29.27,South,179,2.0,5.0,91,0.06,,,0.14,,2013-10-29 11:52:00,
2013-10-29 04:01:00,39.0,37.0,29.27,South,179,2.0,5.0,91,0.06,,,0.14,,2013-10-29 12:01:00,
2013-10-29 04:11:00,39.0,37.0,29.27,South,179,2.0,5.0,91,0.06,,,0.14,,2013-10-29 12:11:00,
2013-10-29 04:21:00,39.0,37.0,29.27,South,179,2.0,5.0,91,0.06,,,0.14,,2013-10-29 12:21:00,
2013-10-29 04:52:00,38.0,35.0,29.29,SSW,209,2.0,6.0,90,0.04,,,0.18,,2013-10-29 12:52:00,
2013-10-29 05:11:00,38.0,35.0,29.29,SSW,209,2.0,6.0,90,0.04,,,0.18,,2013-10-29 13:11:00,
2013-10-29 05:21:00,37.0,34.0,29.30,SW,215,1.0,6.0,89,0.04,,,0.19,,2013-10-29 13:21:00,
2013-10-29 05:32:00,37.0,34.0,29.30,SW,215,1.0,6.0,89,0.04,,,0.19,,2013-10-29 13:32:00,
2013-10-29 05:42:00,37.0,34.0,29.30,SW,215,1.0,6.0,89,0.04,,,0.19,,2013-10-29 13:42:00,
2013-10-29 05:52:00,36.0,33.0,29.31,South,181,1.0,4.0,90,0.04,,,0.22,,2013-10-29 13:52:00,
2013-10-29 06:02:00,36.0,33.0,29.31,South,181,1.0,4.0,90,0.04,,,0.22,,2013-10-29 14:02:00,
2013-10-29 06:11:00,36.0,33.0,29.31,South,181,1.0,4.0,90,0.04,,,0.22,,2013-10-29 14:11:00,
2013-10-29 06:21:00,34.0,31.0,29.32,SSW,205,0.0,1.0,90,0.03,,,0.22,,2013-10-29 14:21:00,
2013-10-29 06:32:00,34.0,31.0,29.32,SSW,205,0.0,1.0,90,0.03,,,0.22,,2013-10-29 14:32:00,
2013-10-29 06:42:00,34.0,31.0,29.32,SSW,205,0.0,1.0,90,0.03,,,0.22,,2013-10-29 14:42:00,
2013-10-29 06:52:00,34.0,31.0,29.33,SSW,205,0.0,1.0,90,0.00,,,0.22,,2013-10-29 14:52:00,
2013-10-29 07:02:00,34.0,31.0,29.33,SSW,205,0.0,1.0,90,0.00,,,0.22,,2013-10-29 15:02:00,
2013-10-29 07:11:00,34.0,31.0,29.33,SSW,205,0.0,1.0,90,0.00,,,0.22,,2013-10-29 15:11:00,
2013-10-29 07:21:00,34.0,32.0,29.34,SSW,205,0.0,1.0,91,0.00,,,0.22,,2013-10-29 15:21:00,
2013-10-29 07:33:00,34.0,32.0,29.34,SSW,205,0.0,1.0,91,0.00,,,0.22,,2013-10-29 15:33:00,
2013-10-29 07:44:00,34.0,32.0,29.34,SSW,205,0.0,1.0,91,0.00,,,0.22,,2013-10-29 15:44:00,
2013-10-29 07:53:00,34.0,32.0,29.34,SSW,202,0.0,1.0,91,0.01,,,0.23,,2013-10-29 15:53:00,
2013-10-29 08:03:00,34.0,32.0,29.34,SSW,202,0.0,1.0,91,0.01,,,0.23,,2013-10-29 16:03:00,
2013-10-29 08:12:00,34.0,32.0,29.34,SSW,202,0.0,1.0,91,0.01,,,0.23,,2013-10-29 16:12:00,
2013-10-29 08:23:00,34.0,32.0,29.34,SSW,202,0.0,0.0,91,0.01,,,0.23,,2013-10-29 16:23:00,
2013-10-29 08:33:00,34.0,32.0,29.34,SSW,202,0.0,0.0,91,0.01,,,0.23,,2013-10-29 16:33:00,
2013-10-29 08:43:00,34.0,32.0,29.34,SSW,202,0.0,0.0,91,0.01,,,0.23,,2013-10-29 16:43:00,
2013-10-29 08:53:00,34.0,32.0,29.35,SSW,202,0.0,1.0,91,0.00,,,0.23,,2013-10-29 16:53:00,
2013-10-29 09:02:00,34.0,32.0,29.35,SSW,202,0.0,1.0,91,0.00,,,0.23,,2013-10-29 17:02:00,
2013-10-29 09:12:00,34.0,32.0,29.35,SSW,202,0.0,1.0,91,0.00,,,0.23,,2013-10-29 17:12:00,
2013-10-29 09:22:00,35.0,33.0,29.36,SW,223,1.0,5.0,91,0.01,,,0.24,,2013-10-29 17:22:00,
2013-10-29 09:33:00,35.0,33.0,29.36,SW,223,1.0,5.0,91,0.01,,,0.24,,2013-10-29 17:33:00,
2013-10-29 09:42:00,35.0,33.0,29.36,SW,223,1.0,5.0,91,0.01,,,0.24,,2013-10-29 17:42:00,
2013-10-29 09:52:00,35.0,33.0,29.37,SSW,213,0.0,5.0,91,0.02,,,0.25,,2013-10-29 17:52:00,
2013-10-29 10:01:00,35.0,33.0,29.37,SSW,213,0.0,5.0,91,0.02,,,0.25,,2013-10-29 18:01:00,
2013-10-29 10:12:00,35.0,33.0,29.37,SSW,213,0.0,5.0,91,0.02,,,0.25,,2013-10-29 18:12:00,
2013-10-29 10:21:00,35.0,33.0,29.37,SSW,213,1.0,5.0,91,0.02,,,0.26,,2013-10-29 18:21:00,
2013-10-29 10:32:00,35.0,33.0,29.37,SSW,213,1.0,5.0,91,0.02,,,0.26,,2013-10-29 18:32:00,
2013-10-29 10:42:00,35.0,33.0,29.37,SSW,213,1.0,5.0,91,0.02,,,0.26,,2013-10-29 18:42:00,
2013-10-29 10:52:00,35.0,33.0,29.39,SSW,197,2.0,4.0,91,0.02,,,0.27,,2013-10-29 18:52:00,
2013-10-29 11:02:00,35.0,33.0,29.39,SSW,197,2.0,4.0,91,0.02,,,0.27,,2013-10-29 19:02:00,
2013-10-29 11:11:00,35.0,33.0,29.39,SSW,197,2.0,4.0,91,0.02,,,0.27,,2013-10-29 19:11:00,
2013-10-29 11:21:00,35.0,33.0,29.40,West,277,1.0,7.0,91,0.02,,,0.28,,2013-10-29 19:21:00,
2013-10-29 11:32:00,35.0,33.0,29.40,West,277,1.0,7.0,91,0.02,,,0.28,,2013-10-29 19:32:00,
2013-10-29 11:42:00,35.0,33.0,29.40,West,277,1.0,7.0,91,0.02,,,0.28,,2013-10-29 19:42:00,
2013-10-29 11:53:00,36.0,34.0,29.41,West,265,1.0,4.0,91,0.02,,,0.29,,2013-10-29 19:53:00,
2013-10-29 12:02:00,36.0,34.0,29.41,West,265,1.0,4.0,91,0.02,,,0.29,,2013-10-29 20:02:00,
2013-10-29 12:11:00,36.0,34.0,29.41,West,265,1.0,4.0,91,0.02,,,0.29,,2013-10-29 20:11:00,
2013-10-29 12:21:00,36.0,33.0,29.43,West,267,0.0,3.0,90,0.02,,,0.30,,2013-10-29 20:21:00,
2013-10-29 12:32:00,36.0,33.0,29.43,West,267,0.0,3.0,90,0.02,,,0.30,,2013-10-29 20:32:00,
2013-10-29 12:42:00,36.0,33.0,29.43,West,267,0.0,3.0,90,0.02,,,0.30,,2013-10-29 20:42:00,
2013-10-29 12:52:00,36.0,34.0,29.44,SSW,201,2.0,4.0,91,0.02,,,0.31,,2013-10-29 20:52:00,
2013-10-29 13:01:00,36.0,34.0,29.44,SSW,201,2.0,4.0,91,0.02,,,0.31,,2013-10-29 21:01:00,
2013-10-29 13:11:00,36.0,34.0,29.44,SSW,201,2.0,4.0,91,0.02,,,0.31,,2013-10-29 21:11:00,
2013-10-29 13:22:00,36.0,34.0,29.45,WSW,240,1.0,3.0,91,0.01,,,0.31,,2013-10-29 21:22:00,
2013-10-29 13:34:00,36.0,34.0,29.45,WSW,240,1.0,3.0,91,0.01,,,0.31,,2013-10-29 21:34:00,
2013-10-29 13:43:00,36.0,34.0,29.45,WSW,240,1.0,3.0,91,0.01,,,0.31,,2013-10-29 21:43:00,
2013-10-29 13:54:00,36.0,34.0,29.45,SW,232,1.0,5.0,91,0.01,,,0.32,,2013-10-29 21:54:00,
2013-10-29 14:03:00,36.0,34.0,29.45,SW,232,1.0,5.0,91,0.01,,,0.32,,2013-10-29 22:03:00,
2013-10-29 14:13:00,36.0,34.0,29.45,SW,232,1.0,5.0,91,0.01,,,0.32,,2013-10-29 22:13:00,
2013-10-29 14:23:00,36.0,34.0,29.47,South,177,2.0,5.0,91,0.01,,,0.32,,2013-10-29 22:23:00,
2013-10-29 14:33:00,36.0,34.0,29.47,South,177,2.0,5.0,91,0.01,,,0.32,,2013-10-29 22:33:00,
2013-10-29 14:43:00,36.0,34.0,29.47,South,177,2.0,5.0,91,0.01,,,0.32,,2013-10-29 22:43:00,
2013-10-29 14:53:00,36.0,34.0,29.46,SSW,204,1.0,6.0,91,0.00,,,0.32,,2013-10-29 22:53:00,
2013-10-29 15:12:00,36.0,34.0,29.46,SSW,204,1.0,6.0,91,0.00,,,0.32,,2013-10-29 23:12:00,
2013-10-29 15:21:00,37.0,34.0,29.47,SSW,200,1.0,4.0,90,0.01,,,0.33,,2013-10-29 23:21:00,
2013-10-29 15:33:00,37.0,34.0,29.47,SSW,200,1.0,4.0,90,0.01,,,0.33,,2013-10-29 23:33:00,
2013-10-29 15:42:00,37.0,34.0,29.47,SSW,200,1.0,4.0,90,0.01,,,0.33,,2013-10-29 23:42:00,
2013-10-29 15:53:00,37.0,34.0,29.47,SW,229,1.0,5.0,90,0.01,,,0.33,,2013-10-29 23:53:00,
2013-10-29 16:01:00,37.0,34.0,29.47,SW,229,1.0,5.0,90,0.01,,,0.33,,2013-10-30 00:01:00,
2013-10-29 16:11:00,37.0,34.0,29.47,SW,229,1.0,5.0,90,0.01,,,0.33,,2013-10-30 00:11:00,
2013-10-29 16:21:00,38.0,34.0,29.46,West,265,4.0,7.0,87,0.00,,,0.33,,2013-10-30 00:21:00,
2013-10-29 16:32:00,38.0,34.0,29.46,West,265,4.0,7.0,87,0.00,,,0.33,,2013-10-30 00:32:00,
2013-10-29 16:42:00,38.0,34.0,29.46,West,265,4.0,7.0,87,0.00,,,0.33,,2013-10-30 00:42:00,
2013-10-29 16:52:00,37.0,33.0,29.46,West,263,4.0,8.0,85,0.00,,,0.33,,2013-10-30 00:52:00,
2013-10-29 17:01:00,37.0,33.0,29.46,West,263,4.0,8.0,85,0.00,,,0.33,,2013-10-30 01:01:00,
2013-10-29 17:11:00,37.0,33.0,29.46,West,263,4.0,8.0,85,0.00,,,0.33,,2013-10-30 01:11:00,
2013-10-29 17:22:00,37.0,33.0,29.46,West,268,2.0,3.0,86,0.00,,,0.33,,2013-10-30 01:22:00,
2013-10-29 17:31:00,37.0,33.0,29.46,West,268,2.0,3.0,86,0.00,,,0.33,,2013-10-30 01:31:00,
2013-10-29 17:42:00,37.0,33.0,29.46,West,268,2.0,3.0,86,0.00,,,0.33,,2013-10-30 01:42:00,
2013-10-29 17:52:00,35.0,32.0,29.47,West,268,0.0,0.0,87,0.00,,,0.33,,2013-10-30 01:52:00,
2013-10-29 18:02:00,35.0,32.0,29.47,West,268,0.0,0.0,87,0.00,,,0.33,,2013-10-30 02:02:00,
2013-10-29 18:11:00,35.0,32.0,29.47,West,268,0.0,0.0,87,0.00,,,0.33,,2013-10-30 02:11:00,
2013-10-29 18:21:00,33.0,30.0,29.47,West,268,0.0,0.0,89,0.00,,,0.33,,2013-10-30 02:21:00,
2013-10-29 18:32:00,33.0,30.0,29.47,West,268,0.0,0.0,89,0.00,,,0.33,,2013-10-30 02:32:00,
2013-10-29 18:42:00,33.0,30.0,29.47,West,268,0.0,0.0,89,0.00,,,0.33,,2013-10-30 02:42:00,
2013-10-29 18:52:00,32.0,29.0,29.47,West,268,0.0,0.0,90,0.00,,,0.33,,2013-10-30 02:52:00,
2013-10-29 19:02:00,32.0,29.0,29.47,West,268,0.0,0.0,90,0.00,,,0.33,,2013-10-30 03:02:00,
2013-10-29 19:11:00,32.0,29.0,29.47,West,268,0.0,0.0,90,0.00,,,0.33,,2013-10-30 03:11:00,
2013-10-29 19:21:00,32.0,29.0,29.47,West,268,0.0,0.0,90,0.00,,,0.33,,2013-10-30 03:21:00,
2013-10-29 19:34:00,32.0,29.0,29.47,West,268,0.0,0.0,90,0.00,,,0.33,,2013-10-30 03:34:00,
2013-10-29 19:44:00,32.0,29.0,29.47,West,268,0.0,0.0,90,0.00,,,0.33,,2013-10-30 03:44:00,
2013-10-29 19:54:00,31.0,28.0,29.47,West,268,0.0,0.0,90,0.00,,,0.33,,2013-10-30 03:54:00,
2013-10-29 20:03:00,31.0,28.0,29.47,West,268,0.0,0.0,90,0.00,,,0.33,,2013-10-30 04:03:00,
2013-10-29 20:13:00,31.0,28.0,29.47,West,268,0.0,0.0,90,0.00,,,0.33,,2013-10-30 04:13:00,
2013-10-29 20:44:00,31.0,28.0,29.46,West,268,0.0,0.0,90,0.00,,,0.33,,2013-10-30 04:44:00,
2013-10-29 20:53:00,30.0,27.0,29.46,West,268,0.0,0.0,90,0.00,,,0.33,,2013-10-30 04:53:00,
2013-10-29 21:03:00,30.0,27.0,29.46,West,268,0.0,0.0,90,0.00,,,0.33,,2013-10-30 05:03:00,
2013-10-29 21:13:00,30.0,27.0,29.46,West,268,0.0,0.0,90,0.00,,,0.33,,2013-10-30 05:13:00,
2013-10-29 21:22:00,30.0,27.0,29.46,West,268,0.0,0.0,90,0.00,,,0.33,,2013-10-30 05:22:00,
2013-10-29 21:34:00,30.0,27.0,29.46,West,268,0.0,0.0,90,0.00,,,0.33,,2013-10-30 05:34:00,
2013-10-29 21:43:00,30.0,27.0,29.46,West,268,0.0,0.0,90,0.00,,,0.33,,2013-10-30 05:43:00,
2013-10-29 21:52:00,29.0,26.0,29.45,West,268,0.0,1.0,90,0.00,,,0.33,,2013-10-30 05:52:00,
2013-10-29 22:02:00,29.0,26.0,29.45,West,268,0.0,1.0,90,0.00,,,0.33,,2013-10-30 06:02:00,
2013-10-29 22:13:00,29.0,26.0,29.45,West,268,0.0,1.0,90,0.00,,,0.33,,2013-10-30 06:13:00,
2013-10-29 22:21:00,29.0,26.0,29.45,West,268,0.0,0.0,90,0.00,,,0.33,,2013-10-30 06:21:00,
2013-10-29 22:32:00,29.0,26.0,29.45,West,268,0.0,0.0,90,0.00,,,0.33,,2013-10-30 06:32:00,
2013-10-29 22:42:00,29.0,26.0,29.45,West,268,0.0,0.0,90,0.00,,,0.33,,2013-10-30 06:42:00,
2013-10-29 22:52:00,29.0,26.0,29.44,West,268,0.0,0.0,90,0.00,,,0.33,,2013-10-30 06:52:00,
2013-10-29 23:02:00,29.0,26.0,29.44,West,268,0.0,0.0,90,0.00,,,0.33,,2013-10-30 07:02:00,
2013-10-29 23:11:00,29.0,26.0,29.44,West,268,0.0,0.0,90,0.00,,,0.33,,2013-10-30 07:11:00,
2013-10-29 23:21:00,28.0,25.0,29.44,West,268,0.0,1.0,90,0.00,,,0.33,,2013-10-30 07:21:00,
2013-10-29 23:32:00,28.0,25.0,29.44,West,268,0.0,1.0,90,0.00,,,0.33,,2013-10-30 07:32:00,
2013-10-29 23:42:00,28.0,25.0,29.44,West,268,0.0,1.0,90,0.00,,,0.33,,2013-10-30 07:42:00,
2013-10-29 23:52:00,27.0,24.0,29.44,West,268,0.0,0.0,89,0.00,,,0.33,,2013-10-30 07:52:00,